Huntsville, AL

3:49 PM CST on February 25, 2017 (GMT -0600)
Huntsville International

Weather History for KHSV - February, 2014

Change the Weather History Date:

Friday, February 28, 2014

  Actual Average Record
Temperature  
Mean Temperature 42 °F 49 °F  
Max Temperature 57 °F 60 °F 80 °F (1918)
Min Temperature 26 °F 39 °F 15 °F (1935)
Degree Days  
Heating Degree Days 23 16  
Month to date heating degree days 611 542  
Since 1 July heating degree days 2835 2452  
Cooling Degree Days 0 0  
Month to date cooling degree days 1 1  
Year to date cooling degree days 1 1  
Moisture  
Dew Point 20 °F    
Average Humidity 49    
Maximum Humidity 76    
Minimum Humidity 22    
Precipitation  
Precipitation 0.02 in 0.18 in 2.70 in (1939)
Month to date precipitation 6.57 4.84  
Year to date precipitation 9.87 9.73  
Snow  
Snow 0.00 in - - ()
Month to date snowfall 5.2  
Since 1 July snowfall 5.2  
Snow Depth 0.00 in    
Sea Level Pressure  
Sea Level Pressure 30.09 in    
Wind  
Wind Speed 7 mph (East)    
Max Wind Speed 16 mph    
Max Gust Speed 21 mph    
Visibility 10 miles    
Events Rain    
T = Trace of Precipitation, MM = Missing Value Source: NWS Daily Summary

Daily Weather History Graph

Daily Weather History Graph

Search for Another Location

Airport or City:

Trip Planner

Search our weather history database for the weather conditions in past years. The results will help you decide how hot, cold, wet, or windy it might be!

Date:

Astronomy

Feb. 28, 2014 Rise Set
Actual Time 6:17 AM CST 5:42 PM CST
Civil Twilight 5:52 AM CST 6:07 PM CST
Nautical Twilight 5:22 AM CST 6:36 PM CST
Astronomical Twilight 4:53 AM CST 7:05 PM CST
Moon 5:31 AM CST (2/28) 5:17 PM CST (2/28)
Length of Visible Light 12h 15m
Length of Day
11h 24m
Waning Crescent, 1% of the Moon is Illuminated
Feb 28
Waning Crescent
Mar 1
New
Mar 8
First Quarter
Mar 16
Full
Mar 23
Last Quarter

Hourly Weather History & Observations

Time (CST) Temp. Windchill Dew Point Humidity Pressure Visibility Wind Dir Wind Speed Gust Speed Precip Events Conditions
12:53 AM 32.0 °F 26.4 °F 14.0 °F 48% 30.07 in 10.0 mi NNE 5.8 mph - N/A   Clear
1:53 AM 30.0 °F 22.4 °F 14.0 °F 51% 30.06 in 10.0 mi NNE 8.1 mph - N/A   Clear
2:53 AM 28.9 °F 21.9 °F 15.1 °F 56% 30.06 in 10.0 mi NE 6.9 mph - N/A   Clear
3:53 AM 27.0 °F 21.6 °F 14.0 °F 58% 30.07 in 10.0 mi NE 4.6 mph - N/A   Clear
4:53 AM 26.1 °F 21.9 °F 14.0 °F 60% 30.09 in 10.0 mi ENE 3.5 mph - N/A   Clear
5:53 AM 26.1 °F 21.9 °F 15.1 °F 63% 30.11 in 10.0 mi NE 3.5 mph - N/A   Partly Cloudy
6:53 AM 30.0 °F - 18.0 °F 61% 30.14 in 10.0 mi Calm Calm - N/A   Mostly Cloudy
7:53 AM 33.1 °F 28.7 °F 19.0 °F 56% 30.16 in 10.0 mi East 4.6 mph - N/A   Scattered Clouds
8:53 AM 39.0 °F 32.8 °F 18.0 °F 43% 30.15 in 10.0 mi East 9.2 mph - N/A   Scattered Clouds
9:53 AM 43.0 °F 35.4 °F 16.0 °F 34% 30.13 in 10.0 mi ESE 16.1 mph 20.7 mph N/A   Mostly Cloudy
10:53 AM 46.9 °F - 18.0 °F 32% 30.13 in 10.0 mi SE 8.1 mph - N/A   Mostly Cloudy
11:53 AM 48.9 °F - 16.0 °F 27% 30.09 in 10.0 mi Variable 5.8 mph 16.1 mph N/A   Scattered Clouds
12:53 PM 52.0 °F - 16.0 °F 24% 30.08 in 10.0 mi Variable 5.8 mph - N/A   Scattered Clouds
1:53 PM 54.0 °F - 17.1 °F 23% 30.06 in 10.0 mi Variable 6.9 mph - N/A   Mostly Cloudy
2:53 PM 55.9 °F - 18.0 °F 23% 30.03 in 10.0 mi ESE 8.1 mph - N/A   Mostly Cloudy
3:53 PM 54.0 °F - 16.0 °F 22% 30.04 in 10.0 mi SSE 9.2 mph - N/A   Mostly Cloudy
4:53 PM 52.0 °F - 16.0 °F 24% 30.04 in 10.0 mi ESE 10.4 mph - N/A   Mostly Cloudy
5:53 PM 50.0 °F - 19.0 °F 29% 30.04 in 10.0 mi SE 11.5 mph - N/A   Overcast
6:53 PM 51.1 °F - 19.0 °F 28% 30.04 in 10.0 mi SE 8.1 mph - N/A   Overcast
7:53 PM 46.0 °F - 34.0 °F 63% 30.07 in 10.0 mi Calm Calm - 0.01 in Rain Light Rain
8:53 PM 45.0 °F 42.6 °F 37.0 °F 74% 30.10 in 10.0 mi SSE 4.6 mph - 0.01 in Rain Light Rain
9:53 PM 45.0 °F 40.6 °F 36.0 °F 71% 30.11 in 10.0 mi SE 8.1 mph - 0.00 in Rain Light Rain
10:53 PM 45.0 °F 41.2 °F 35.1 °F 68% 30.12 in 10.0 mi ESE 6.9 mph - 0.00 in Rain Light Rain
11:53 PM 45.0 °F 41.2 °F 37.0 °F 74% 30.12 in 10.0 mi SE 6.9 mph - 0.00 in Rain Light Rain